Location: Barrio de Buenos Aires
(28.4500°N, 16.2667°W)
Time: 14:19:46
(UTC+00:00)

Nadezhda 3 Rocket - Pass Details

Date: 24 January 2020
Orbit: 958 x 999 km, 82.9° (Epoch: 23 February)

Event Time Altitude Azimuth Distance (km) Brightness Sun altitude
Rises 18:47:40 0° 354° (N) 3,694 6.9 -2.9°
Reaches altitude 10° 18:50:11 10° 353° (N) 2,748 6.2 -3.4°
Maximum altitude 18:56:30 85° 267° (W) 1,000 4.2 -4.7°
Drops below altitude 10° 19:02:51 10° 178° (S) 2,755 6.6 -6.0°
Sets 19:05:22 0° 178° (S) 3,703 7.3 -6.5°
